Date String (YYYY-MM-DD hh:mm:ss) UTC,Instrument flags,Ambient pressure (hPa),Sample flow (lpm),Bypass flow (lpm),Sample temperature (°C),Ambient temperature (°C),ASC tube jacket temperature (°C),LED temperature (°C),Box temperature (°C),Sample RH (%),Span deviation,Mass concentration (μg/m³),Mass concentration (μg/m³),Mass concentration (μg/m³)
DateTimeUTC,F1_M11,P_M11,Q1_M11,Q2_M11,T1_M11,T2_M11,T3_M11,T4_M11,T5_M11,U1_M11,ZSPAN_M11,X0_M11,X2_M11,X1_M11
2021-11-09 18:00:00,,0828.9,4.99,0.00,26.1,25.3,00.0,35.0,27.9,17.5,-000.7,0030.78,0019.30,0017.66
2021-11-09 18:01:00,,0828.9,5.00,0.00,26.1,25.3,00.0,35.0,27.9,17.5,-000.8,0031.14,0019.16,0017.52
2021-11-09 18:02:00,,0828.9,5.01,0.00,26.1,25.3,00.0,35.0,27.9,17.5,-001.0,0031.01,0018.92,0017.33
2021-11-09 18:03:00,,0829.4,5.00,0.00,26.1,25.3,00.0,35.0,27.9,17.6,-001.0,0031.04,0018.76,0017.17
2021-11-09 18:04:00,,0829.4,5.00,0.00,26.1,25.3,00.0,35.0,27.9,17.6,-001.1,0031.85,0018.66,0017.05
2021-11-09 18:05:00,,0829.1,5.00,0.00,26.1,25.3,00.0,35.0,28.0,17.6,-000.9,0031.12,0018.54,0016.91
2021-11-09 18:06:00,,0828.7,5.02,0.00,26.1,25.3,00.0,35.0,27.9,17.6,-000.9,0031.41,0018.47,0016.83
2021-11-09 18:07:00,,0829.1,5.00,0.00,26.1,25.3,00.0,35.0,27.9,17.8,-000.9,0031.08,0018.50,0016.85
2021-11-09 18:08:00,,0829.2,5.00,0.00,26.1,25.3,00.0,35.0,27.9,17.7,-001.0,0030.73,0018.54,0016.85
2021-11-09 18:09:00,,0828.8,5.00,0.00,26.1,25.3,00.0,35.0,27.9,17.6,-001.0,0030.05,0018.56,0016.86
2021-11-09 18:10:00,,0828.7,5.00,0.00,26.1,25.3,00.0,35.0,28.0,17.6,-000.9,0029.02,0018.58,0016.89
2021-11-09 18:11:00,,0828.8,5.01,0.00,26.1,25.3,00.0,35.1,28.0,17.6,-000.8,0030.02,0018.54,0016.90
2021-11-09 18:12:00,,0828.6,4.99,0.00,26.2,25.3,00.0,35.1,28.0,17.5,-000.9,0030.52,0018.47,0016.86
2021-11-09 18:13:00,,0828.6,5.01,0.00,26.2,25.3,00.0,35.1,28.0,17.5,-001.0,0030.75,0018.50,0016.87
2021-11-09 18:14:00,,0828.6,5.00,0.00,26.2,25.3,00.0,35.1,28.0,17.5,-000.9,0030.29,0018.46,0016.84
2021-11-09 18:15:00,,0828.8,5.00,0.00,26.2,25.3,00.0,35.1,28.0,17.6,-000.8,0029.91,0018.38,0016.78
2021-11-09 18:16:00,,0829.0,5.00,0.00,26.2,25.4,00.0,35.1,28.0,17.5,-000.9,0030.14,0018.29,0016.73
2021-11-09 18:17:00,,0828.7,4.99,0.00,26.2,25.4,00.0,35.1,28.0,17.6,-001.0,0030.48,0018.21,0016.69
2021-11-09 18:18:00,,0828.5,5.01,0.00,26.2,25.4,00.0,35.1,28.1,17.6,-000.9,0030.48,0018.13,0016.64
2021-11-09 18:19:00,,0828.5,5.00,0.00,26.2,25.5,00.0,35.1,28.1,17.4,-000.9,0030.26,0018.11,0016.62
2021-11-09 18:20:00,,0828.3,5.00,0.00,26.2,25.5,00.0,35.2,28.1,17.4,-000.8,0030.61,0018.13,0016.61
2021-11-09 18:21:00,,0828.3,5.01,0.00,26.3,25.5,00.0,35.2,28.1,17.4,-001.0,0031.71,0018.09,0016.56
2021-11-09 18:22:00,,0828.3,5.00,0.00,26.3,25.5,00.0,35.2,28.1,17.3,-001.1,0030.81,0018.09,0016.54
2021-11-09 18:23:00,,0828.3,5.01,0.00,26.3,25.5,00.0,35.2,28.2,17.3,-001.0,0030.03,0018.04,0016.51
2021-11-09 18:24:00,,0828.2,4.98,0.00,26.3,25.5,00.0,35.2,28.2,17.4,-000.9,0029.45,0017.98,0016.50
2021-11-09 18:25:00,,0828.2,5.00,0.00,26.3,25.6,00.0,35.2,28.2,17.3,-001.0,0030.09,0017.91,0016.47
2021-11-09 18:26:00,,0828.2,4.99,0.00,26.3,25.6,00.0,35.2,28.2,17.4,-001.2,0030.60,0017.90,0016.44
2021-11-09 18:27:00,,0828.2,5.01,0.00,26.4,25.7,00.0,35.3,28.2,17.4,-001.2,0030.11,0017.88,0016.44
2021-11-09 18:28:00,,0828.2,4.99,0.00,26.4,25.7,00.0,35.3,28.3,17.3,-001.2,0029.76,0017.93,0016.44
2021-11-09 18:29:00,,0828.2,5.02,0.00,26.4,25.7,00.0,35.3,28.3,17.3,-001.3,0030.46,0018.00,0016.45
2021-11-09 18:30:00,,0828.1,4.99,0.00,26.4,25.8,00.0,35.3,28.3,17.3,-001.5,0030.88,0017.98,0016.45
2021-11-09 18:31:00,,0828.1,4.99,0.00,26.5,25.8,00.0,35.3,28.4,17.3,-001.6,0030.61,0017.95,0016.46
2021-11-09 18:32:00,,0828.1,5.01,0.00,26.5,25.8,00.0,35.4,28.4,17.2,-001.6,0030.04,0018.05,0016.50
2021-11-09 18:33:00,,0828.0,5.01,0.00,26.5,25.8,00.0,35.4,28.4,17.2,-001.6,0030.34,0018.08,0016.50
2021-11-09 18:34:00,,0827.9,5.00,0.00,26.5,25.8,00.0,35.4,28.4,17.2,-001.7,0030.04,0018.15,0016.50
2021-11-09 18:35:00,,0827.9,5.00,0.00,26.6,25.9,00.0,35.4,28.5,17.2,-001.6,0029.85,0018.17,0016.49
2021-11-09 18:36:00,,0827.9,4.99,0.00,26.6,25.9,00.0,35.4,28.5,17.1,-001.6,0030.56,0018.24,0016.50
2021-11-09 18:37:00,,0827.9,5.02,0.00,26.6,25.9,00.0,35.5,28.5,17.0,-001.6,0029.61,0018.25,0016.51
2021-11-09 18:38:00,,0827.9,5.00,0.00,26.6,25.9,00.0,35.5,28.5,17.1,-001.7,0029.57,0018.28,0016.51
2021-11-09 18:39:00,,0827.8,5.01,0.00,26.7,25.9,00.0,35.5,28.6,17.1,-001.8,0029.36,0018.20,0016.48
2021-11-09 18:40:00,,0827.8,5.00,0.00,26.7,25.9,00.0,35.5,28.6,17.0,-001.7,0028.91,0018.12,0016.45
2021-11-09 18:41:00,,0827.7,5.01,0.00,26.7,25.9,00.0,35.5,28.6,17.0,-001.5,0029.31,0018.09,0016.41
2021-11-09 18:42:00,,0827.7,5.00,0.00,26.7,25.9,00.0,35.6,28.6,16.9,-001.4,0029.77,0018.12,0016.39
2021-11-09 18:43:00,,0827.7,5.00,0.00,26.7,25.9,00.0,35.6,28.6,16.9,-001.5,0029.87,0018.10,0016.36
2021-11-09 18:44:00,,0827.7,5.01,0.00,26.7,26.0,00.0,35.6,28.6,16.9,-001.4,0029.27,0018.12,0016.36
2021-11-09 18:45:00,,0827.5,4.99,0.00,26.7,26.0,00.0,35.6,28.6,16.8,-001.3,0029.63,0018.09,0016.40
2021-11-09 18:46:00,,0827.6,5.01,0.00,26.8,26.0,00.0,35.6,28.6,16.9,-001.4,0029.70,0018.07,0016.40
2021-11-09 18:47:00,,0827.5,5.00,0.00,26.8,26.1,00.0,35.6,28.6,16.8,-001.6,0028.73,0018.06,0016.40
2021-11-09 18:48:00,,0827.5,5.01,0.00,26.8,26.1,00.0,35.7,28.7,16.8,-001.3,0028.11,0018.09,0016.42
2021-11-09 18:49:00,,0827.6,4.99,0.00,26.8,26.1,00.0,35.7,28.7,16.8,-001.2,0029.02,0018.03,0016.39
2021-11-09 18:50:00,,0827.5,5.00,0.00,26.9,26.1,00.0,35.7,28.7,16.7,-001.0,0029.72,0017.99,0016.36
2021-11-09 18:51:00,,0827.5,5.00,0.00,26.9,26.2,00.0,35.7,28.7,16.7,-001.1,0030.84,0018.00,0016.34
2021-11-09 18:52:00,,0827.5,5.00,0.00,26.9,26.2,00.0,35.7,28.8,16.7,-001.1,0030.44,0017.98,0016.32
2021-11-09 18:53:00,,0827.5,5.00,0.00,26.9,26.2,00.0,35.8,28.8,16.7,-001.2,0030.60,0017.89,0016.26
2021-11-09 18:54:00,,0827.4,5.01,0.00,26.9,26.3,00.0,35.8,28.8,16.7,-001.1,0030.20,0017.82,0016.21
2021-11-09 18:55:00,,0827.4,5.01,0.00,27.0,26.3,00.0,35.8,28.8,16.6,-001.0,0030.50,0017.77,0016.14
2021-11-09 18:56:00,,0827.3,4.99,0.00,27.0,26.3,00.0,35.8,28.9,16.6,-000.9,0031.06,0017.75,0016.03
2021-11-09 18:57:00,,0827.2,5.00,0.00,27.0,26.3,00.0,35.8,28.9,16.6,-000.8,0031.50,0017.71,0015.95
2021-11-09 18:58:00,,0827.2,5.01,0.00,27.0,26.3,00.0,35.9,28.9,16.6,-000.9,0031.43,0017.59,0015.87
2021-11-09 18:59:00,,0827.3,5.00,0.00,27.0,26.3,00.0,35.9,29.0,16.5,-001.0,0031.25,0017.47,0015.77
